Regional Weather Roundup
Issued by NWS

Home | Current Version | Previous Version | Graphics & Text | Print | Product List | Glossary On
Versions: 1 2 3 4 5 6 7 8 9 10 11 12 13 14 15 16 17 18 19 20 21 22 23 24 25 26 27 28 29 30 31 32 33 34 35 36 37 38 39 40 41 42 43 44 45 46 47 48 49 50
000
ASUS43 KLMK 291702
RWRKY
KENTUCKY REGIONAL WEATHER ROUNDUP
NATIONAL WEATHER SERVICE LOUISVILLE KY
100 PM EDT FRI APR 29 2016

NOTE "FAIR" INDICATES FEW OR NO CLOUDS BELOW 12,000 FEET
WITH NO SIGNIFICANT WEATHER AND/OR OBSTRUCTIONS TO VISIBILITY.

KYZ001>023-026-027-061>063-070>075-291800-
WESTERN AND SOUTH CENTRAL KENTUCKY

CITY           SKY/WX    TMP DP  RH WIND       PRES   REMARKS
PADUCAH        CLOUDY    64  52  64 E6        30.03F
HENDERSON      CLOUDY    64  46  52 NE7       30.05R
OWENSBORO      CLOUDY    67  50  54 N7        30.07R
HOPKINSVILLE   CLOUDY    68  57  67 NE5       30.03S
BOWLING GREEN  CLOUDY    73  56  54 CALM      30.04R
GLASGOW        NOT AVBL
$$

KYZ024-025-028>034-038-045-046-053-291800-
NORTH CENTRAL KENTUCKY

CITY           SKY/WX    TMP DP  RH WIND       PRES   REMARKS
LOUISVILLE/SDF CLOUDY    69  45  41 N6        30.05R
LOUISVILLE/LOU CLOUDY    68  47  46 VRB6      30.05S
FORT KNOX      CLOUDY    67  49  53 N6        30.03S
$$

KYZ035>037-039>044-047>052-055>060-089>105-291800-
NORTHEAST KENTUCKY

CITY           SKY/WX    TMP DP  RH WIND       PRES   REMARKS
LEXINGTON      SUNNY     67  50  54 VRB3      30.04F
COVINGTON      PTSUNNY   66  49  54 NW10G20   30.04S
FRANKFORT      SUNNY     68  46  45 VRB3      30.03F
$$

KYZ054-064>069-076>088-106>120-291800-
SOUTHEAST KENTUCKY

CITY           SKY/WX    TMP DP  RH WIND       PRES   REMARKS
JACKSON        SUNNY     73  51  46 VRB7      30.02F
LONDON         SUNNY     74  50  42 VRB3      30.04F
SOMERSET       NOT AVBL
MIDDLESBORO    NOT AVBL
MONTICELLO     MOSUNNY   74  54  49 N14       30.06S
$$





USA.gov is the U.S. government's official web portal to all federal, state and local government web resources and services.